OpenBCM V1.13 (Linux)

Packet Radio Mailbox

DB0FHN

[JN59NK Nuernberg]

 Login: GUEST





  
CX2SA  > KEPS     07.12.12 04:54l 254 Lines 12135 Bytes #999 (0) @ WW
BID : ORB12341.N
Read: DK3UZ GUEST DL3SEU
Subj: 2Line Orbital Elements 12341.AMSAT
Path: DB0FHN<DB0FOR<DB0SIF<DB0EAM<DB0RES<IK2XDE<IZ3LSV<IQ5KG<IK1NHL<CX2SA
Sent: 121207/0244Z @:CX2SA.SAL.URY.SA #:241 [Salto] FBB7.00e $:ORB12341.N
From: CX2SA@CX2SA.SAL.URY.SA
To  : KEPS@AMSAT


HR AMSAT ORBITAL ELEMENTS FOR AMATEUR SATELLITES IN NASA FORMAT
FROM WA5QGD FORT WORTH,TX December 6, 2012
BID: ORB12341.N

DECODE 2-LINE ELSETS WITH THE FOLLOWING KEY:
1 AAAAAU 00  0  0 BBBBB.BBBBBBBB  .CCCCCCCC  00000-0  00000-0 0  DDDZ
2 AAAAA EEE.EEEE FFF.FFFF GGGGGGG HHH.HHHH III.IIII JJ.JJJJJJJJKKKKKZ
KEY: A-CATALOGNUM B-EPOCHTIME C-DECAY D-ELSETNUM E-INCLINATION F-RAAN
G-ECCENTRICITY H-ARGPERIGEE I-MNANOM J-MNMOTION K-ORBITNUM Z-CHECKSUM

TO ALL RADIO AMATEURS BT

AO-07
1 07530U 74089B   12340.48756040 -.00000027  00000-0  10000-3 0  5492
2 07530 101.4141 331.1581 0011801 307.9850 052.0155 12.53593313741515
FO-29
1 24278U 96046B   12340.89596651 -.00000070  00000-0 -32330-4 0  9946
2 24278 098.5848 059.0822 0349972 304.9642 051.9082 13.52992626805176
SO-33
1 25509U 98061B   12340.65603177  .00000622  00000-0  10891-3 0  3839
2 25509 031.4347 083.2308 0352493 263.8600 092.1753 14.28928290737199
RS-22
1 27939U 03042A   12341.55817341  .00000310  00000-0  67243-4 0  9714
2 27939 097.7989 173.4568 0014484 078.6571 281.6250 14.64248844491104
VO-52
1 28650U 05017B   12340.68389812  .00000416  00000-0  56613-4 0  2820
2 28650 097.5820 003.1456 0025715 194.8768 165.1707 14.83422110410396
HO-68
1 36122U 09072B   12341.29598676 -.00000044  00000-0  00000 0 0   758
2 36122 100.3389 036.9914 0007864 076.3757 283.8230 13.16300379143032
UO-11
1 14781U 84021B   12341.59283173  .00000641  00000-0  90231-4 0   446
2 14781 097.9314 039.4078 0009157 185.3468 174.7648 14.80682190545431
AO-16
1 20439U 90005D   12340.96369247  .00000092  00000-0  50183-4 0  6223
2 20439 098.4488 279.6856 0011399 015.2656 344.8869 14.32118240194587
LO-19
1 20442U 90005G   12340.96082949  .00000091  00000-0  49578-4 0  5547
2 20442 098.4177 282.1029 0012107 006.3618 353.7712 14.32332899194779
AO-27
1 22825U 93061C   12341.57386181  .00000054  00000-0  38376-4 0  2609
2 22825 098.5953 281.8662 0009070 130.1001 230.0974 14.29515771  1115
IO-26
1 22826U 93061D   12340.98164395  .00000089  00000-0  51406-4 0   150
2 22826 098.5884 281.6097 0009571 125.3171 234.8906 14.29794686  1154
GO-32
1 25397U 98043D   12340.78831481 -.00000002  00000-0  17158-4 0  9416
2 25397 098.3870 311.2517 0001972 117.8144 242.3234 14.23310497748438
NO-44
1 26931U 01043C   12340.48648769 -.00000126  00000-0 -16667-4 0  2041
2 26931 067.0521 038.8255 0004948 257.4991 102.5548 14.29865457583739
SO-50
1 27607U 02058C   12340.51846242  .00000419  00000-0  84682-4 0  9333
2 27607 064.5562 133.6197 0069728 213.3465 146.3213 14.72666020535195
CO-55
1 27844U 03031E   12341.00157448  .00000181  00000-0  10348-3 0  5256
2 27844 098.7011 346.8880 0010493 085.8094 274.4284 14.21125861489295
CO-57
1 27848U 03031J   12341.03596535  .00000156  00000-0  92523-4 0  4748
2 27848 098.7104 346.3363 0010405 090.9658 269.2708 14.20864095489234
AO-51
1 28375U 04025K   12340.45106505  .00000372  00000-0  12413-3 0  4320
2 28375 098.1720 297.9889 0082443 242.5893 116.6858 14.41045688443434
CP3
1 31129U 07012N   12340.52932485  .00000525  00000-0  12876-3 0  3324
2 31129 097.8840 338.2720 0100037 310.6852 048.5671 14.53371352298863
CO-65
1 32785U 08021C   12341.20876659  .00001193  00000-0  15144-3 0  4896
2 32785 097.7788 038.0224 0013700 216.3361 143.6903 14.83442566249267
PRISM
1 33493U 09002B   12341.56238459  .00001878  00000-0  22670-3 0  3242
2 33493 098.1923 126.6052 0019432 098.3213 262.0198 14.84932346209321
SOHLA-1
1 33496U 09002E   12340.90304139  .00000304  00000-0  58897-4 0  9072
2 33496 098.1192 091.6676 0005831 209.9894 150.0978 14.70135136207471
SO-67
1 35870U 09049F   12341.68165750  .00003071  00000-0  12444-3 0  5810
2 35870 097.2132 011.3335 0000822 333.4747 167.3003 15.25384234178898
TISAT-1
1 36799U 10035E   12341.54784909  .00001223  00000-0  15844-3 0  5977
2 36799 098.0504 059.0843 0014256 338.4249 021.6365 14.82630347130029
STUDSAT
1 36801U 10035G   12341.88566420  .00003798  00000-0  43791-3 0  5436
2 36801 098.0577 061.0611 0012153 319.0995 040.9304 14.86239599130155
FO-69
1 37227U 0        12324.39082420  .00000949  00000-0  14124-3 0 03419
2 37227 071.9700 329.4329 0015671 026.5333 333.6607 14.77273675059013
FO-70
1 37380U 0        12324.35497821  .00000912  00000-0  13684-3 0 03454
2 37380 071.9737 330.2673 0016487 023.0914 337.0959 14.77019282058893
ALMASAT-1
1 38078U 12006B   12341.35973677  .00022969  00000-0  61734-3 0  8006
2 38078 069.4776 285.4025 0729155 031.9286 332.3912 14.16174542 41868
XATCOBEO
1 38082U 12006F   12341.25508006  .00061412  00000-0  13910-2 0  7513
2 38082 069.4825 276.8992 0665187 027.2523 336.1831 14.33160757 42080
NOAA-10
1 16969U 86073A   12341.15794559  .00000098  00000-0  57465-4 0  1621
2 16969 098.5654 007.0146 0013141 090.8308 269.4376 14.27600307364400
NOAA-11
1 19531U 88089A   12341.18698803 -.00000049  00000-0 -32498-5 0  1556
2 19531 098.7237 062.6576 0012025 091.7430 268.5112 14.14994326248836
NOAA-12
1 21263U 91032A   12341.29295047  .00000045  00000-0  37655-4 0  6365
2 21263 098.7162 002.0473 0014721 061.8514 298.4151 14.25535095121075
MET-3/5
1 21655U 91056A   12340.83634477 -.00000349  00000-0 -93796-3 0  5667
2 21655 082.5569 030.9140 0012358 250.3466 109.6323 13.17046533 24483
MET-2/21
1 22782U 93055A   12341.32952962  .00000094  00000-0  71578-4 0  6028
2 22782 082.5484 255.9212 0023523 033.3725 326.8912 13.83696156972971
OKEAN-4
1 23317U 94066A   12340.90877658  .00000552  00000-0  62942-4 0   755
2 23317 082.5409 230.6187 0022057 139.8688 220.4161 14.84145908980278
NOAA-14
1 23455U 94089A   12341.36425678  .00000003  00000-0  24600-4 0  1172
2 23455 098.8195 062.6182 0009176 181.6630 178.4514 14.13884645925127
NOAA-15
1 25338U 98030A   12340.99959465  .00000133  00000-0  75422-4 0  5141
2 25338 098.7067 326.4427 0010407 334.0012 026.0659 14.25154819757325
RESURS
1 25394U 98043A   12341.02296452  .00000014  00000-0  23758-4 0  2513
2 25394 098.3373 320.3719 0002339 085.7710 274.3737 14.24311857748860
FENGYUN1
1 25730U 99025A   12341.46934986  .00001021  00000-0  60336-3 0  7568
2 25730 098.8602 297.6070 0020491 231.1271 128.8070 14.09906646698886
OKEAN-0
1 25860U 99039A   12340.90311235  .00000288  00000-0  50948-4 0  8071
2 25860 097.9605 300.2855 0001972 065.5510 294.5904 14.74414683719870
NOAA-16
1 26536U 00055A   12341.06298282 -.00000034  00000-0  64661-5 0  9952
2 26536 099.0718 025.6496 0009980 323.0639 036.9874 14.12813525629301
NOAA-17
1 27453U 02032A   12341.39449183  .00000062  00000-0  44440-4 0  9370
2 27453 098.3225 359.6179 0011981 016.1979 343.9586 14.24517307543278
NOAA-18
1 28654U 05018A   12341.36485412  .00000284  00000-0  18098-3 0  4205
2 28654 099.0720 301.0985 0014883 032.9834 327.2260 14.11742882388855
NOAA-19
1 33591U 09005A   12341.34054019 -.00000025  00000-0  10831-4 0  6051
2 33591 098.8823 279.1343 0013240 254.9691 105.0021 14.11427426197295
HUBBLE
1 20580U 90037B   12341.52905794  .00000995  00000-0  59684-4 0  1267
2 20580 028.4686 095.2716 0003441 101.3175 258.7803 15.03101363 40674
ISS
1 25544U 98067A   12342.03238571  .00006829  00000-0  11874-3 0  7842
2 25544 051.6490 342.8989 0016060 013.0002 055.4226 15.51952440804865
CO-58
1 28895U 05043F   12340.60478582  .00000403  00000-0  91333-4 0  3460
2 28895 097.8888 199.1244 0017341 335.1568 024.8812 14.60878807378685
FALCON
1 30776U 07006E   12341.23653436  .00003077  00000-0  19298-3 0  5017
2 30776 035.4380 304.9034 0001234 358.7486 001.3229 15.09053102316241
MAST
1 31126U 07012K   12341.02766201  .00000419  00000-0  10361-3 0  6252
2 31126 097.8741 342.0956 0092640 295.5131 063.6505 14.54371405299242
CAPE1
1 31130U 07012P   12340.51561859  .00000462  00000-0  11489-3 0  6364
2 31130 097.8861 337.9341 0100423 311.5147 047.7457 14.53218176298653
COMPASS
1 32787U 08021E   12340.69841933  .00000986  00000-0  12235-3 0  4838
2 32787 097.7789 038.1094 0014058 216.3266 143.6970 14.84746458249258
AAUSAT2
1 32788U 08021F   12340.69494388  .00001388  00000-0  16812-3 0  4749
2 32788 097.7783 038.5915 0013905 216.2269 143.7932 14.85137257249285
DO-64
1 32789U 08021G   12341.35073745  .00003021  00000-0  34146-3 0  4953
2 32789 097.7927 041.9840 0013643 208.9029 151.1431 14.87167317249450
CO-66
1 32791U 08021J   12340.69499010  .00001003  00000-0  12654-3 0  4722
2 32791 097.7794 037.6938 0014586 216.9988 143.0196 14.84028394249170
RS-30
1 32953U 08025A   12341.53409193  .00000010  00000-0  00000 0 0  3884
2 32953 082.5006 187.9710 0018367 294.8789 065.0388 12.43030198205974
PHARMSAT
1 35002U 09028B   12226.86484473  .07728342  73476-5  57159-3 0   789
2 35002 040.4341 050.6671 0012079 300.9773 059.0492 16.39309245183554
METEOR-M
1 35865U 09049A   12341.55507655 -.00000017  00000-0  11894-4 0   298
2 35865 098.6318 032.4405 0001721 286.9424 073.1567 14.21876203167094
RS-38
1 35869U 09049E   12341.62020695  .00000026  00000-0  31037-4 0  9967
2 35869 098.6267 032.4675 0003844 279.2151 080.8596 14.22103178167126
JUGNU
1 37839U 11058B   12341.23871090  .00000620  00000-0  19019-3 0  2855
2 37839 019.9606 035.8792 0018720 320.1217 039.7816 14.12111710 59592
SRMSAT
1 37841U 11058D   12341.24473927  .00000264  00000-0  00000 0 0  2878
2 37841 019.9702 044.0984 0012074 276.9428 082.9682 14.10186498 59500
RAX-2
1 37853U 11061D   12341.89605705  .00004904  00000-0  38360-3 0  3642
2 37853 101.7076 100.8531 0242142 217.9127 140.4803 14.81658905 59957
AUBIESAT
1 37854U 11061E   12340.92138398  .00005769  00000-0  44058-3 0  3613
2 37854 101.7080 099.9284 0243231 219.6797 138.6384 14.82167547 59814
